Weather in Bol'shoy Uluy

Russia / Krasnoyarsk Krai     56°39′16″N   90°34′17″E
temp.,
°C
wind,
m/s
gust,
m/s
humid.,
%
clouds,
%
prec.,
mm/h
press.,
hPa
HPBL,
m
8 may, sat
sat801:00+7wsw257669 0.0 1011103
04:00+7wsw267694 0.1 1012205
07:00+7w39736 0.1 1013683
10:00+11w5944100 0.0 10122101
13:00+10w5962100 0.4 10121330
16:00+9w4672100 0.7 10121113
19:00+7nw4880100 1.6 10121103
22:00+5wnw4786100 0.6 1013832
9 may, sun
sun901:00+4nw378980 1.0 1014692
04:00+1wnw389617 0.1 1015294
07:00+2wnw38878 0.1 1016402
10:00+5nw4572100 0.1 10161025
13:00+8nnw4561100 0.7 10171445
16:00+8n566494 1.0 10181294
19:00+6nnw4674100 1.3 1019687
22:00+4nnw268419 0.0 1021196
10 may, mon
mon1001:00+3nw248999 0.1 102291
04:00+4nnw3692100 0.0 1022212
07:00+4n259278 0.0 1024219
10:00+9n236735 0.0 1024942
13:00+11ne2356100 0.0 10231467
16:00+12nne025382 0.0 1023900
19:00+11nnw126495 0.0 102292
22:00+6nne22795 0.0 102214
11 may, tue
tue1101:00+5ne228411 0.0 102112
04:00+4ene22865 0.0 102019
07:00+7ne24785 0.0 1019152
10:00+12ne345512 0.0 1018834
13:00+13ne3547100 0.1 10171786
16:00+15nne454198 0.0 10162043
19:00+13nne475498 0.1 1016766
22:00+9nne4107798 0.0 1017262
12 may, wed
wed1201:00+8ne41085100 0.0 1016357
04:00+6ne3892100 0.0 1017379
07:00+6ne468885 0.1 1018434
10:00+9ne357075 0.0 1018856
13:00+11ne455896 0.1 10181366
16:00+11ne455481 0.0 10181137
19:00+11ne245422 0.0 1019741
22:00+6nnw227429 0.0 102122